User: anonymous   Login
Location: Stoke Bliss
(52.2667°N, 2.5167°W)
Time: 22:56:52
(UTC+00:00)
Language:

Cosmos 1666 Rocket - Orbit

View from above orbital plane
View from above orbital plane
View from above satellite
View from above satellite

Ground track
Ground track

The orbit data is extracted from the following two-line orbital elements,

1 15890U 85058B   21138.67925191  .00000067  00000-0  52514-5 0  9999
2 15890  82.5275   0.9460 0020904 176.5272 243.2061 14.83474692937137
Epoch (UTC): 18 May 2021 16:18:07
Eccentricity: 0.0020904
inclination: 82.5275°
perigee height: 604 km
apogee height: 633 km
right ascension of ascending node: 0.9460°
argument of perigee: 176.5272°
revolutions per day: 14.83474692
mean anomaly at epoch: 243.2061°
orbit number at epoch: 93713

The dashed part of the orbit path shows where the satellite is in the earth's shadow,  

DLR